Buffalo, NY

10:29 AM EDT on June 27, 2017 (GMT -0400)
Buffalo Niagara International

Weather History for KBUF - September, 2012

Change the Weather History Date:

Sunday, September 9, 2012

  Actual Average Record
Temperature  
Mean Temperature 63 °F 65 °F  
Max Temperature 69 °F 74 °F 95 °F (1959)
Min Temperature 56 °F 56 °F 40 °F (1883)
Degree Days  
Heating Degree Days 2 3  
Month to date heating degree days 2 18  
Since 1 July heating degree days 3 45  
Cooling Degree Days 0 2  
Month to date cooling degree days 72 27  
Year to date cooling degree days 865 514  
Growing Degree Days 13 (Base 50)    
Moisture  
Dew Point 48 °F    
Average Humidity 62    
Maximum Humidity 86    
Minimum Humidity 37    
Precipitation  
Precipitation T in 0.11 in 3.24 in (2004)
Month to date precipitation 2.50 1.03  
Year to date precipitation 19.24 26.19  
Snow  
Snow 0.00 in 0.00 in 0.00 in ()
Month to date snowfall 0.0 0.0  
Since 1 July snowfall 0.0 0.0  
Since 1 September snowfall 0.0 0.0  
Snow Depth 0.00 in    
Sea Level Pressure  
Sea Level Pressure 29.90 in    
Wind  
Wind Speed 5 mph (NW)    
Max Wind Speed 17 mph    
Max Gust Speed 22 mph    
Visibility 10 miles    
Events Rain    
T = Trace of Precipitation, MM = Missing Value Source: NWS Daily Summary

Daily Weather History Graph

Daily Weather History Graph

Search for Another Location

Airport or City:

Trip Planner

Search our weather history database for the weather conditions in past years. The results will help you decide how hot, cold, wet, or windy it might be!

Date:

Astronomy

Sep. 09, 2012 Rise Set
Actual Time 6:48 AM EDT 7:34 PM EDT
Civil Twilight 6:19 AM EDT 8:03 PM EDT
Nautical Twilight 5:45 AM EDT 8:37 PM EDT
Astronomical Twilight 5:10 AM EDT 9:12 PM EDT
Moon 12:09 AM EDT (9/9) 3:25 PM EDT (9/9)
Length of Visible Light 13h 43m
Length of Day
12h 46m
Last Quarter, 39% of the Moon is Illuminated
Sep 9
Last Quarter
Sep 15
New
Sep 22
First Quarter
Sep 29
Full
Oct 8
Last Quarter

Hourly Weather History & Observations

Time (EDT) Temp. Dew Point Humidity Pressure Visibility Wind Dir Wind Speed Gust Speed Precip Events Conditions
12:54 AM 60.1 °F 51.1 °F 72% 29.81 in 10.0 mi Calm Calm - N/A   Scattered Clouds
1:54 AM 60.1 °F 52.0 °F 75% 29.81 in 10.0 mi North 4.6 mph - N/A   Mostly Cloudy
2:54 AM 57.9 °F 52.0 °F 81% 29.81 in 10.0 mi South 3.5 mph - N/A   Mostly Cloudy
3:54 AM 57.9 °F 53.1 °F 84% 29.81 in 10.0 mi SW 3.5 mph - N/A   Mostly Cloudy
4:54 AM 59.0 °F 53.1 °F 81% 29.82 in 10.0 mi Calm Calm - N/A   Mostly Cloudy
5:54 AM 57.9 °F 51.1 °F 78% 29.83 in 10.0 mi SSW 5.8 mph - N/A   Mostly Cloudy
6:54 AM 57.0 °F 48.9 °F 74% 29.84 in 10.0 mi SW 3.5 mph - N/A   Mostly Cloudy
7:54 AM 59.0 °F 48.9 °F 69% 29.87 in 10.0 mi Calm Calm - N/A   Mostly Cloudy
8:54 AM 60.1 °F 50.0 °F 69% 29.89 in 10.0 mi West 3.5 mph - N/A   Mostly Cloudy
9:54 AM 61.0 °F 53.1 °F 75% 29.91 in 10.0 mi North 5.8 mph - N/A   Mostly Cloudy
10:54 AM 63.0 °F 51.1 °F 65% 29.91 in 10.0 mi NNW 5.8 mph - N/A   Mostly Cloudy
11:54 AM 59.0 °F 52.0 °F 78% 29.93 in 9.0 mi North 6.9 mph - 0.00 in Rain Light Rain
12:54 PM 63.0 °F 51.1 °F 65% 29.93 in 10.0 mi North 3.5 mph - 0.00 in   Mostly Cloudy
1:54 PM 64.0 °F 48.9 °F 58% 29.93 in 10.0 mi North 4.6 mph - N/A   Mostly Cloudy
2:54 PM 68.0 °F 46.9 °F 47% 29.92 in 10.0 mi NW 5.8 mph - N/A   Scattered Clouds
3:54 PM 68.0 °F 44.1 °F 42% 29.92 in 10.0 mi WNW 8.1 mph - N/A   Mostly Cloudy
4:54 PM 68.0 °F 41.0 °F 37% 29.92 in 10.0 mi NNW 9.2 mph - N/A   Scattered Clouds
5:54 PM 66.9 °F 41.0 °F 39% 29.94 in 10.0 mi NNW 8.1 mph - N/A   Mostly Cloudy
6:54 PM 64.9 °F 42.1 °F 43% 29.95 in 10.0 mi North 6.9 mph - N/A   Mostly Cloudy
7:54 PM 63.0 °F 46.0 °F 54% 29.96 in 10.0 mi NNW 4.6 mph - N/A   Mostly Cloudy
8:54 PM 62.1 °F 46.0 °F 56% 29.98 in 10.0 mi NNW 4.6 mph - N/A   Mostly Cloudy
9:54 PM 61.0 °F 46.0 °F 58% 29.99 in 10.0 mi NW 5.8 mph - N/A   Mostly Cloudy
10:54 PM 60.1 °F 46.9 °F 62% 30.00 in 10.0 mi NW 4.6 mph - N/A   Mostly Cloudy
11:54 PM 57.9 °F 46.9 °F 67% 30.02 in 10.0 mi NNW 5.8 mph - N/A   Scattered Clouds